Theta_e
355 356 356 355 355 354 355 354 354 353 352 351 351 350 349 348 349 349 349 349 349 349 350 351 351 350 349 349 349 349 349 350 350 350 350 350 351 352 355 356 356 356 354 351 354 354 356 357 356 357 356 356 358 357 357 357 357 356 356 355 355 356 355 356 355 355 355 354 355 354 354 354 354 354 354 354 354 354 353 353 353 353 353 353 353
356 356 355 354 354 353 353 353 353 352 351 350 351 350 348 347 348 348 348 348 348 349 352 350 350 352 351 349 349 349 349 349 349 349 349 349 350 351 354 355 356 357 355 355 354 353 354 355 357 355 355 354 355 358 357 357 357 356 356 356 356 356 355 355 356 356 355 355 355 355 354 354 354 355 354 354 355 355 354 354 354 355 355 354 354
357 356 355 354 353 352 352 352 351 351 351 350 352 352 349 348 348 348 346 345 346 348 350 349 350 350 351 351 350 350 350 350 349 350 349 349 349 350 351 355 356 356 356 355 353 353 354 356 358 357 356 356 355 354 357 357 357 357 356 356 356 356 356 355 356 357 356 355 355 355 355 354 354 354 354 354 355 355 355 355 355 355 355 355 355
357 356 355 354 353 352 352 351 350 350 351 352 350 348 349 348 347 347 347 346 346 348 351 350 350 350 350 348 349 349 349 349 349 349 349 350 350 350 351 352 354 355 356 356 354 353 355 356 356 356 356 356 356 355 352 353 355 355 357 357 356 356 356 356 355 356 357 356 356 355 355 356 354 354 354 355 355 355 355 355 355 355 355 355 355
358 356 357 354 353 352 350 351 350 351 352 349 347 347 347 347 347 347 345 346 347 349 350 349 348 348 349 348 348 348 348 348 348 348 348 349 349 350 350 351 352 353 354 356 356 355 355 356 357 357 357 357 356 355 354 355 352 353 355 357 356 356 356 356 356 356 356 356 356 356 356 356 356 355 354 355 355 355 355 355 356 355 356 356 355
358 356 352 351 350 350 350 349 350 351 351 349 347 347 345 345 344 346 348 350 348 347 346 346 347 347 346 346 345 346 347 347 348 348 347 347 349 349 350 350 351 352 353 353 354 355 354 355 356 356 357 356 355 353 354 353 352 350 351 354 356 356 356 356 357 356 356 356 356 356 356 356 357 356 356 355 355 355 355 356 356 356 356 356 356
356 354 351 351 349 347 349 348 347 351 349 349 347 346 346 347 348 347 347 346 344 346 346 346 346 345 345 346 345 345 345 345 346 346 346 347 348 348 350 350 351 351 352 353 353 354 355 355 355 356 354 353 355 353 353 353 353 353 354 355 353 355 357 357 357 357 356 356 356 356 356 356 357 357 356 356 356 356 356 356 356 357 357 357 357
353 353 353 351 350 348 344 344 346 348 349 350 350 349 349 349 350 349 345 343 343 343 344 344 344 344 344 344 344 344 344 344 344 344 344 345 345 346 348 349 351 351 353 353 353 353 354 354 355 355 354 353 353 352 354 352 353 354 355 354 353 353 355 356 357 357 357 357 356 356 356 356 356 356 357 357 356 356 356 356 356 357 357 357 357
351 351 352 349 347 344 345 345 348 349 350 350 350 350 349 348 345 347 345 343 341 341 341 341 341 341 342 342 342 343 343 343 343 343 344 343 343 343 344 346 349 352 354 354 354 355 354 354 354 355 355 354 353 354 353 351 352 353 354 355 355 354 356 354 356 357 357 357 357 357 356 356 356 356 356 357 357 357 357 357 357 357 357 357 357
348 349 348 348 347 346 347 348 350 350 350 346 345 344 344 345 344 341 342 341 340 340 340 340 341 341 342 341 342 341 342 342 343 345 343 342 343 343 344 345 346 348 350 353 355 355 354 353 354 355 353 352 353 352 350 350 351 353 355 355 355 356 356 354 353 354 357 356 356 357 357 357 357 357 357 357 357 357 357 358 358 358 357 357 357
349 349 347 347 349 348 348 350 350 346 343 343 342 343 344 341 341 341 341 341 340 341 341 341 340 341 341 341 342 341 342 341 344 343 343 342 343 345 344 345 346 348 351 352 354 354 353 353 352 353 353 351 352 351 350 350 350 352 354 354 355 356 356 356 355 354 355 356 356 355 357 358 357 358 357 357 357 357 357 357 358 358 358 358 357
349 348 347 348 348 348 349 349 348 345 344 342 341 339 341 340 339 339 339 340 342 342 341 340 340 339 339 340 340 339 340 341 342 342 343 342 342 344 343 344 345 347 349 352 354 354 353 353 353 352 351 351 352 352 352 353 353 353 355 356 357 355 356 356 356 356 356 356 356 355 354 356 358 358 358 357 358 357 357 357 357 358 358 358 358
351 350 348 351 349 347 348 346 346 346 344 343 343 342 341 341 339 341 342 339 338 338 339 339 336 335 334 336 337 338 338 339 341 340 339 341 342 344 344 343 343 345 349 352 354 353 353 353 353 354 354 356 356 354 353 354 355 354 353 355 356 357 356 357 357 357 357 356 356 355 355 356 355 358 358 357 357 357 357 357 356 357 358 358 358
354 351 351 349 348 346 345 345 343 346 345 345 343 345 345 341 339 338 338 338 337 338 339 337 332 331 330 331 333 335 338 338 339 338 338 339 340 343 344 342 343 346 348 350 350 350 352 353 354 353 353 353 354 354 356 354 354 354 355 354 356 357 357 357 357 356 356 356 356 355 355 354 355 355 357 358 357 357 356 356 356 356 357 358 358
353 352 350 348 348 347 346 344 344 345 345 343 343 343 341 341 338 339 338 338 338 339 339 338 335 332 331 328 325 327 333 334 335 337 338 338 340 340 342 341 341 345 347 347 346 346 347 348 348 350 351 352 352 353 353 354 355 355 354 354 354 355 355 355 353 353 353 354 354 353 353 354 355 355 355 356 357 357 357 356 356 356 356 357 357
352 353 352 350 348 347 347 345 344 345 345 343 340 340 339 338 338 338 338 335 331 333 340 338 337 336 327 327 326 325 323 327 329 335 336 337 338 338 340 341 342 343 344 341 343 345 346 348 347 348 349 350 351 352 352 352 353 356 355 354 353 353 354 356 357 354 352 352 353 352 352 353 354 355 355 356 354 357 356 356 356 356 356 356 357
352 353 353 349 348 348 346 345 344 343 344 342 340 341 339 339 336 338 337 333 331 332 336 339 336 338 334 330 324 322 321 325 328 331 332 334 335 337 341 340 340 341 340 341 343 343 345 344 346 347 348 348 349 349 350 350 351 352 352 353 353 353 353 354 355 353 354 355 355 353 353 352 351 354 355 355 355 355 356 356 356 356 356 356 356
352 352 353 351 348 346 345 344 342 342 344 342 342 338 337 337 337 337 334 334 336 332 332 335 337 338 338 336 332 327 326 327 327 324 333 333 335 339 338 338 339 337 339 340 340 341 341 339 342 343 344 346 347 348 348 349 350 350 351 351 352 353 354 354 354 355 354 354 353 353 352 352 351 352 354 356 356 356 357 356 356 356 356 356 356
350 350 350 350 346 344 343 342 342 340 345 340 339 339 336 334 336 337 335 336 334 332 331 331 334 337 338 337 336 336 335 330 325 326 322 329 332 333 335 337 336 337 337 337 337 337 337 339 339 339 342 343 344 346 347 347 347 348 350 351 350 350 351 352 353 354 355 354 353 353 351 351 350 352 352 354 355 355 355 356 356 356 355 356 356
346 345 346 347 344 342 341 342 341 341 345 339 338 336 336 338 340 337 337 338 336 335 333 332 333 332 336 335 335 336 335 333 332 329 325 321 323 331 332 332 333 333 336 335 335 335 334 336 336 339 341 341 341 342 342 345 346 347 348 348 350 350 351 351 352 352 353 354 353 352 353 353 353 353 353 354 355 355 355 354 354 355 356 356 356
343 343 344 344 348 342 340 340 340 342 347 338 336 335 335 337 339 338 337 339 338 338 337 335 332 333 332 332 331 330 332 333 333 332 327 323 322 324 325 330 331 332 332 333 335 335 335 336 337 338 339 338 338 339 340 341 343 344 342 341 342 344 344 345 346 350 352 352 353 353 353 352 354 355 354 355 354 354 354 354 355 354 355 357 357
339 341 342 342 345 342 340 339 339 341 345 338 336 334 332 332 335 338 335 336 338 339 338 336 335 334 333 331 330 327 328 329 329 329 329 328 323 323 325 324 323 328 332 331 333 333 335 335 336 336 336 337 337 338 338 336 337 335 336 337 337 337 338 338 339 342 345 347 349 352 353 353 353 353 354 354 355 355 355 355 355 355 356 355 356
338 340 341 342 343 343 340 338 339 345 344 335 336 336 335 335 334 333 335 335 335 335 337 337 336 335 333 332 332 330 329 329 328 328 326 324 323 323 325 326 326 325 330 331 333 333 333 334 334 335 336 336 338 338 335 334 332 333 335 335 335 336 335 336 336 337 338 341 344 347 349 352 353 353 352 353 355 355 355 354 355 356 356 357 356
337 337 338 339 342 341 341 339 341 341 337 336 336 336 336 334 335 335 335 334 334 337 334 334 334 333 333 333 334 332 331 331 330 329 328 327 326 325 325 326 326 326 328 329 331 332 331 331 335 334 334 336 337 335 335 333 332 332 333 334 334 333 333 333 334 334 335 336 338 340 344 347 349 351 353 353 353 353 354 353 354 354 355 356 357
334 335 337 338 341 338 337 337 339 341 339 335 336 336 336 335 335 335 335 334 335 337 335 335 333 332 333 333 333 332 333 333 331 330 329 328 326 323 323 323 322 323 327 326 328 330 331 333 335 334 335 335 334 332 332 331 332 331 332 332 333 331 332 332 332 333 333 333 334 336 337 339 343 347 349 351 353 353 353 354 353 354 354 355 355
332 334 337 338 340 339 339 337 338 340 339 336 336 337 336 335 335 335 334 335 333 333 334 334 333 333 333 333 333 333 333 331 331 330 329 327 324 323 322 321 321 322 323 325 325 322 326 329 332 333 334 335 334 331 330 329 329 330 332 331 331 330 330 331 331 332 332 332 333 333 335 336 337 340 344 347 349 351 352 354 355 355 355 355 355
333 335 338 338 338 337 339 337 337 337 339 338 338 337 338 337 337 335 336 334 333 334 334 333 333 333 333 334 334 333 333 332 331 332 331 330 329 327 324 319 316 317 318 321 323 322 320 326 330 330 332 335 333 330 330 330 329 330 332 331 330 329 329 330 331 330 331 332 332 333 333 334 335 336 338 341 345 348 350 351 353 354 354 354 354
334 336 337 337 337 336 339 338 336 336 338 338 337 337 336 335 335 336 335 337 334 333 335 333 333 333 333 333 332 333 333 333 332 333 331 332 331 328 326 322 317 312 315 316 317 319 322 322 328 330 330 332 330 329 328 328 327 329 331 330 330 329 329 329 329 330 331 332 332 332 332 332 333 334 335 337 340 343 345 347 348 350 350 352 352
335 337 336 336 336 336 336 338 336 336 336 338 337 336 336 336 336 334 333 334 337 335 334 333 334 333 333 332 332 332 332 333 333 333 332 332 331 330 328 324 322 316 314 314 315 315 321 321 320 329 330 330 328 329 328 328 328 329 330 329 329 329 328 328 329 330 331 330 330 330 331 332 332 332 334 336 337 339 342 343 343 345 346 347 349
335 337 336 336 334 340 335 336 336 335 335 336 336 336 335 334 334 334 334 334 333 335 335 334 334 333 333 332 332 332 334 332 333 333 333 332 330 329 328 326 325 320 318 314 313 317 320 322 322 324 328 328 327 327 327 328 328 329 329 329 328 327 327 328 330 329 329 329 328 328 329 329 330 331 331 332 334 336 338 340 341 342 344 344 346
336 337 335 334 334 335 335 334 334 334 334 334 335 335 335 334 334 334 334 334 333 333 334 334 334 334 333 332 332 332 333 333 333 332 333 332 330 329 327 326 325 325 321 318 314 318 320 321 323 324 324 326 325 326 326 327 328 328 329 328 328 327 328 328 328 327 327 327 327 327 327 327 328 329 329 330 332 334 336 338 339 340 341 343 344
334 334 335 334 334 333 334 333 333 333 333 334 334 335 334 334 333 334 334 333 332 332 333 334 333 334 333 333 333 333 333 332 332 331 331 332 331 328 327 326 325 325 324 321 316 314 321 320 321 323 325 325 327 325 326 326 327 329 328 327 327 328 327 326 326 327 326 326 326 326 325 325 327 329 329 330 332 334 336 336 337 338 339 340 341
333 332 333 333 334 334 333 335 334 333 333 333 333 333 333 333 333 333 333 333 332 332 333 333 333 333 334 333 333 333 334 332 331 331 330 330 330 328 328 326 324 324 323 321 318 317 319 323 322 322 325 325 323 326 325 326 327 327 327 328 327 326 325 326 326 327 327 326 325 325 325 325 326 327 328 329 331 332 334 336 336 337 338 337 338
333 332 332 333 334 333 332 332 334 334 333 333 332 332 332 331 332 333 333 332 331 331 332 332 333 333 333 333 333 334 334 332 331 330 330 329 328 327 327 325 324 324 323 322 320 318 315 320 321 324 323 324 322 326 325 325 325 327 326 326 326 326 325 325 325 326 327 326 324 323 324 324 325 326 327 329 330 331 332 333 333 334 335 335 335
332 332 332 332 333 333 332 333 332 332 332 332 332 331 331 331 332 332 333 333 332 332 331 332 332 333 331 332 332 333 333 331 331 330 330 329 328 327 327 326 325 325 324 323 321 318 317 318 321 321 322 324 323 324 326 326 327 327 325 325 325 324 325 325 325 325 326 325 324 324 323 324 324 325 326 327 327 327 328 329 330 331 331 332 332
330 332 332 331 332 331 331 332 331 331 331 331 331 331 331 331 331 331 332 332 332 332 332 332 332 332 331 331 331 332 332 331 331 330 329 329 328 327 327 327 326 325 325 324 322 320 319 316 319 320 322 322 323 326 326 327 326 326 325 325 325 324 324 325 325 325 325 324 324 323 323 323 323 323 323 324 324 324 324 324 326 328 328 328 328
330 330 332 332 331 330 330 330 330 330 331 331 331 331 331 332 331 332 332 332 332 332 332 332 332 332 331 331 332 332 331 330 330 329 329 327 328 327 326 327 326 326 325 324 324 322 319 316 319 322 323 323 324 324 326 324 325 325 326 324 323 323 324 324 323 325 325 324 324 324 323 323 323 323 323 324 324 324 324 324 325 325 326 327 327
330 330 329 330 332 330 330 330 330 330 331 331 331 331 331 332 332 332 332 332 332 331 331 331 331 332 332 332 331 331 330 329 329 329 329 328 328 327 326 326 326 326 325 325 325 323 321 321 321 320 323 322 322 323 325 326 323 321 321 323 324 323 323 322 322 323 325 325 324 324 323 323 323 323 323 323 324 323 324 324 324 323 323 323 322
330 330 330 329 331 332 331 330 330 330 331 331 331 331 331 332 332 332 332 331 331 331 331 331 332 332 331 331 331 331 330 330 329 329 329 328 328 327 328 327 327 326 325 324 324 323 322 321 321 321 320 322 322 321 325 327 325 322 319 318 318 322 323 322 321 324 324 324 324 324 324 324 324 324 322 322 323 323 324 324 323 322 322 321 320
331 330 330 330 330 331 331 331 331 332 331 331 330 330 331 331 331 331 331 331 331 331 332 332 332 332 332 332 331 332 332 331 331 330 330 329 329 327 328 327 327 326 324 325 324 323 322 321 320 319 320 320 322 324 325 325 322 321 322 320 316 318 320 322 323 321 323 323 321 322 323 323 323 323 322 323 324 324 324 325 325 326 325 322 321
332 331 332 331 330 330 331 331 331 332 330 330 330 330 329 329 330 329 329 330 330 330 330 331 331 331 332 332 332 333 333 332 329 328 328 326 329 328 328 328 327 326 325 324 323 322 321 320 319 320 320 319 320 321 320 320 319 319 322 322 319 320 320 320 322 324 323 321 321 321 321 323 323 324 325 326 328 329 328 330 331 331 328 324 323
332 333 331 331 330 330 329 329 330 330 330 331 333 331 331 331 329 328 328 329 329 329 330 330 331 331 331 332 333 334 330 328 327 326 324 322 322 327 330 329 327 326 325 324 323 322 321 319 319 319 318 318 319 320 319 321 323 323 321 320 317 319 319 318 319 321 324 322 320 319 321 323 323 323 324 323 326 329 329 333 336 336 333 328 326
331 331 331 330 329 329 328 328 328 329 330 331 330 326 327 331 332 330 328 328 329 330 331 331 331 332 333 333 332 332 333 332 332 328 326 324 323 322 321 321 322 326 325 323 323 322 320 320 320 320 319 318 319 321 320 321 322 321 320 320 319 318 315 313 311 318 324 322 320 318 318 321 323 320 321 321 323 325 326 326 330 333 330 328 327
331 331 330 330 330 329 329 328 329 330 330 330 324 324 326 327 330 333 331 329 329 330 331 331 331 332 332 332 332 332 332 331 331 331 329 327 323 322 321 320 319 319 320 323 324 323 322 321 320 320 320 319 319 320 320 320 320 320 321 320 319 317 315 313 314 313 319 323 318 316 316 320 321 320 319 321 323 325 325 325 325 329 330 328 328
332 331 330 330 329 329 329 329 328 330 330 327 324 324 324 324 325 328 331 331 331 331 331 331 331 331 331 330 330 330 330 329 330 331 330 328 324 322 320 319 318 317 318 318 319 324 326 322 321 319 320 320 319 320 322 322 323 319 319 317 318 317 316 315 315 315 317 321 318 315 314 318 320 319 318 321 323 325 326 326 326 327 329 329 328
330 330 330 329 329 329 329 329 329 330 330 327 323 321 321 321 322 325 329 329 330 331 331 330 330 329 329 329 328 328 329 329 329 327 326 326 326 326 326 326 325 324 320 318 317 316 319 322 321 319 322 322 320 321 323 323 320 318 317 316 318 317 316 315 316 317 319 321 317 315 313 315 319 318 317 320 323 324 327 326 325 326 329 328 328
330 330 330 329 329 330 330 330 329 329 330 325 322 321 319 318 319 324 329 329 329 329 329 328 328 328 328 327 327 327 327 327 328 327 326 326 326 325 324 323 324 325 325 325 324 324 323 323 323 322 323 323 323 323 322 322 321 320 319 318 318 317 317 318 317 318 318 321 319 316 310 315 319 318 318 320 322 324 325 324 324 325 327 327 327
332 331 331 330 330 330 330 330 329 330 331 323 321 319 317 317 320 327 326 326 326 326 326 326 326 326 326 326 326 326 326 325 322 319 322 325 324 323 323 323 324 324 324 321 319 319 322 323 323 322 322 321 316 320 319 318 317 317 316 317 317 316 315 313 312 315 315 319 320 317 313 314 319 317 318 321 323 323 325 327 324 323 324 326 327
331 330 330 330 331 330 330 330 330 330 331 325 317 316 315 315 320 325 324 324 325 324 324 324 324 324 324 325 325 326 325 326 322 318 317 319 323 322 322 322 322 322 321 322 317 314 313 311 310 311 311 311 311 311 310 311 315 315 315 313 312 314 313 310 311 312 313 316 318 318 315 313 317 318 318 321 322 322 324 326 328 326 325 324 325
330 330 331 330 331 331 330 330 331 330 330 324 315 312 312 314 320 323 323 322 322 323 323 322 322 323 324 326 327 328 327 327 319 314 313 318 321 322 321 320 320 318 319 319 317 316 312 311 311 312 312 312 312 311 311 311 311 312 315 311 315 315 312 312 310 311 313 315 317 319 315 314 318 320 318 320 322 323 323 325 327 328 328 324 323
331 332 332 330 330 330 331 331 332 331 329 322 311 311 311 311 320 322 322 322 322 323 321 321 322 323 324 323 322 322 321 320 311 311 311 314 319 320 320 318 316 315 316 315 314 314 315 315 316 316 317 315 318 318 318 314 313 315 319 317 318 315 312 312 311 311 309 311 317 320 315 315 317 319 320 318 316 322 326 326 327 329 333 340 338
Wind_Speed
5 5 4 4 4 3 2 3 2 2 1 2 2 3 3 2 2 3 3 3 3 4 3 4 3 3 4 5 4 4 4 4 4 4 5 4 4 5 9 8 8 8 6 7 16 16 15 15 16 17 15 16 17 16 15 15 15 15 15 14 14 14 14 14 14 13 13 13 13 13 13 13 12 11 11 11 11 11 11 11 10 10 10 9 8
6 4 4 5 4 3 3 3 3 2 0 2 1 2 2 2 2 2 2 3 3 4 3 4 4 3 3 5 5 5 5 5 5 5 5 5 4 5 9 9 8 7 7 8 12 11 15 14 15 13 12 16 17 17 16 16 16 16 15 15 15 15 15 15 15 14 14 14 14 13 13 13 13 12 12 12 12 12 11 11 11 11 10 10 9
5 4 3 4 4 4 4 3 3 1 1 1 2 1 1 1 1 1 2 3 3 3 5 5 4 3 3 4 4 4 4 5 6 5 5 5 5 6 6 9 8 7 8 10 8 10 13 14 15 14 15 16 18 16 17 17 17 16 16 15 15 15 15 15 15 15 15 14 14 14 14 14 13 13 13 13 13 13 12 12 12 12 11 11 10
6 5 4 4 4 4 4 3 3 1 1 2 2 2 1 0 0 1 2 2 3 4 5 5 4 4 3 4 3 3 4 4 4 4 4 5 4 4 4 5 6 7 8 11 9 10 13 15 15 14 13 14 15 14 16 17 17 17 16 16 16 15 15 15 15 15 15 15 15 14 14 14 14 14 14 14 14 13 13 13 13 12 12 11 11
5 5 4 3 4 4 3 3 2 1 1 2 1 0 1 2 3 2 2 3 3 6 5 3 3 4 3 4 3 3 3 3 3 4 5 4 4 4 3 3 4 6 7 10 9 9 12 15 15 15 15 15 14 12 13 17 15 16 17 17 16 16 15 16 16 16 16 15 15 15 15 14 14 14 14 14 14 14 14 14 13 13 13 12 11
4 3 1 1 1 4 3 0 1 2 1 1 2 2 2 2 2 2 3 4 4 3 3 4 3 3 3 3 3 3 3 3 3 4 4 4 4 4 3 3 3 4 4 8 9 9 11 13 15 15 15 14 10 10 15 14 14 12 17 18 17 17 17 17 17 17 17 16 16 16 15 15 15 15 15 15 15 15 15 14 14 14 13 13 12
3 2 2 2 3 2 3 2 1 3 2 1 1 2 2 3 3 4 4 3 2 3 4 3 4 6 5 3 4 3 2 3 3 4 4 5 4 4 3 3 3 3 4 4 7 7 10 12 14 14 13 12 13 11 13 14 17 17 21 18 17 18 17 18 18 18 17 17 17 17 16 16 16 16 16 16 15 15 15 15 15 14 13 13 13
5 3 2 2 3 4 3 3 5 2 2 3 3 3 3 4 4 4 3 3 2 3 2 4 4 5 4 4 4 4 3 3 4 4 4 4 4 4 4 4 3 3 5 4 4 4 8 11 13 14 15 13 13 12 13 14 16 18 17 14 14 17 19 18 18 18 18 18 18 18 17 17 17 17 16 16 16 15 16 15 15 14 14 13 13
4 4 1 3 3 1 4 3 4 2 2 2 2 3 3 3 2 2 2 3 3 4 4 3 3 4 4 5 5 4 3 3 3 3 3 4 4 4 4 4 4 6 4 4 4 4 6 10 13 16 15 14 13 13 11 12 17 19 19 19 19 19 19 19 18 18 18 19 19 19 19 18 18 18 18 17 17 15 15 16 16 15 14 14 13
7 6 5 4 4 4 2 3 2 3 2 1 2 1 1 1 2 2 2 2 3 4 5 4 3 4 4 4 5 3 3 3 3 4 3 4 3 3 3 3 4 4 4 4 5 4 3 5 9 10 11 11 13 14 12 19 18 19 21 21 21 20 19 17 18 18 17 18 19 19 18 18 18 17 17 17 18 16 15 15 15 15 15 14 14
6 6 5 4 4 3 3 2 3 2 2 1 0 1 2 1 2 3 2 3 4 4 4 4 6 5 4 5 4 5 3 3 3 3 3 3 3 3 2 2 3 3 4 3 4 4 4 3 3 3 5 13 13 13 15 21 21 21 20 21 20 20 20 19 19 20 20 18 17 19 19 18 18 18 18 18 18 16 16 16 16 16 16 14 14
6 6 5 4 3 4 3 3 3 3 2 2 2 2 3 3 3 3 4 3 4 4 4 3 3 4 5 5 4 4 4 3 3 3 3 3 3 2 2 1 1 2 2 3 2 3 3 3 3 3 4 7 15 17 20 22 22 21 20 21 21 20 19 20 19 19 19 19 21 20 19 19 19 19 19 19 18 17 16 16 16 16 16 16 15
5 5 5 5 5 4 4 3 3 3 3 4 4 3 2 2 1 2 4 3 2 1 2 1 2 3 2 5 6 3 3 1 1 3 3 4 3 3 2 2 2 2 2 1 2 3 3 4 5 5 5 5 5 8 13 15 18 19 19 20 21 21 21 21 21 20 20 21 21 19 20 19 19 19 19 19 18 17 17 16 16 16 16 16 16
5 5 5 5 4 4 3 4 4 4 4 3 3 3 3 2 2 1 1 1 2 1 1 1 2 2 4 6 5 4 3 2 2 5 4 4 4 4 4 5 5 4 3 2 2 2 2 3 4 4 5 5 5 5 5 8 9 14 19 21 22 22 22 22 22 21 20 20 20 19 20 19 19 20 20 19 19 18 17 16 16 16 16 16 16
5 6 5 5 5 5 5 4 4 4 3 3 3 3 2 3 3 2 1 1 3 2 3 0 0 0 1 0 3 4 4 3 2 4 5 4 3 5 5 5 5 4 3 3 3 3 2 2 2 3 3 4 4 5 5 7 8 12 13 15 18 21 22 22 21 21 21 21 20 19 20 16 17 19 22 20 19 18 18 17 17 17 17 17 17
6 6 4 5 5 5 4 3 4 3 4 3 3 3 2 2 2 2 2 1 2 2 2 2 1 1 2 2 1 1 2 3 5 4 3 5 4 6 4 4 5 6 5 5 4 3 3 2 3 3 3 3 3 3 4 5 9 12 13 14 15 16 20 21 20 19 21 22 20 19 21 19 19 19 21 19 21 19 18 19 18 18 18 17 18
6 6 6 6 5 4 4 3 3 3 3 3 3 4 2 1 2 3 3 2 0 1 2 1 1 1 1 1 1 1 1 2 5 2 3 3 4 5 5 5 7 6 5 4 3 3 4 4 3 2 3 3 3 3 4 5 6 7 8 10 12 13 15 16 18 19 20 22 24 23 20 18 19 18 20 23 20 20 20 19 19 19 19 19 18
6 6 6 5 5 4 4 4 3 3 4 3 3 1 1 2 2 3 3 2 2 1 2 2 2 2 2 0 1 0 1 0 1 3 4 0 2 3 4 4 6 6 5 4 5 5 4 5 4 4 4 3 3 3 3 4 5 6 6 7 12 13 15 15 16 17 17 20 20 20 21 21 23 22 21 21 22 20 20 21 20 20 20 20 19
5 5 5 5 5 4 5 4 3 3 3 3 2 3 3 3 3 3 3 3 3 1 2 2 3 2 2 2 2 0 2 1 1 1 4 4 2 2 3 4 6 5 4 5 5 5 5 4 5 4 4 4 4 4 3 4 6 7 10 12 13 14 15 16 16 16 16 17 18 18 19 21 23 23 20 19 22 23 22 22 21 21 20 20 20
5 5 5 5 5 4 4 4 4 4 4 4 4 3 2 1 2 2 3 3 4 3 2 0 1 1 2 2 3 2 1 2 3 2 2 3 6 1 2 3 6 3 3 5 5 6 6 5 5 5 4 4 4 5 5 5 5 5 5 10 12 14 15 14 15 17 17 16 15 16 18 20 21 21 21 22 23 23 22 22 22 22 21 21 21
5 6 5 5 4 4 4 4 4 4 3 3 2 3 3 3 3 2 3 3 3 3 2 3 2 2 0 1 1 1 2 1 1 2 3 2 4 2 6 3 0 1 4 3 3 4 4 4 4 4 4 4 4 5 5 5 6 6 7 13 14 14 14 14 15 16 16 17 16 15 17 20 21 23 23 23 23 24 24 24 25 24 24 22 21
4 4 5 4 4 4 5 5 5 4 2 3 3 2 2 2 3 3 3 3 4 4 4 3 3 3 2 1 1 0 1 1 1 1 1 2 3 5 5 7 7 4 4 3 6 5 4 3 3 3 4 3 4 4 5 6 6 6 8 14 13 14 14 14 15 15 15 15 16 18 18 17 20 20 20 23 23 23 25 25 26 26 24 25 24
4 4 5 5 5 4 5 5 5 4 4 4 4 4 4 4 3 3 3 4 3 4 4 4 3 3 3 3 3 3 3 3 3 2 2 1 1 4 4 3 3 6 2 3 5 4 3 3 2 3 3 3 3 3 5 5 7 9 14 13 14 14 14 14 14 15 15 16 16 17 18 18 19 21 20 21 24 23 24 24 24 24 25 24 24
3 4 4 4 5 5 5 5 5 5 5 5 4 4 4 3 3 3 3 3 2 3 3 3 3 2 3 3 3 3 2 3 3 3 4 2 3 3 4 4 4 2 2 3 3 2 4 3 2 2 2 2 2 3 4 5 5 12 11 12 13 14 14 15 15 15 16 16 16 17 18 19 19 20 21 20 21 23 24 25 25 26 25 24 24
4 5 5 6 5 5 5 5 5 5 5 4 5 4 4 4 4 4 3 4 4 4 3 4 4 4 4 3 2 3 4 3 2 3 2 2 3 3 4 2 4 4 3 2 2 3 2 2 2 3 3 2 2 2 3 4 5 9 13 9 12 12 13 14 14 14 15 16 16 18 18 19 19 19 19 20 21 22 23 24 25 24 24 23 23
7 7 6 6 6 6 6 6 6 6 5 6 5 5 4 5 4 5 5 5 3 4 4 4 3 4 2 2 3 4 4 3 3 3 3 3 3 4 3 2 2 4 2 3 1 2 2 2 3 4 3 2 2 3 3 4 5 9 14 11 9 10 12 12 13 13 14 15 16 18 19 18 19 20 21 20 21 21 22 23 23 25 25 24 23
7 7 6 7 7 6 6 6 6 5 5 5 5 5 4 4 4 5 5 4 4 4 4 4 4 5 4 5 4 3 4 3 4 5 4 4 4 3 3 2 2 2 2 2 3 4 6 3 3 4 4 3 2 3 4 4 7 12 13 8 6 11 12 11 12 14 14 14 15 17 18 18 19 20 21 22 20 21 22 23 23 22 22 22 22
6 6 7 7 7 6 5 6 6 6 6 6 6 5 5 5 5 4 6 3 4 5 5 4 5 6 6 4 2 4 4 4 4 4 5 4 4 3 3 3 3 5 1 3 2 4 2 2 2 4 4 4 3 3 6 8 6 11 12 6 5 6 10 12 13 13 14 14 15 16 17 18 17 19 21 22 21 20 19 20 20 21 20 20 20
6 6 7 6 6 6 6 6 6 6 6 6 6 6 5 5 5 5 6 5 4 5 4 5 5 5 4 5 6 5 5 4 3 3 4 3 4 4 5 6 5 2 3 3 4 4 3 3 2 2 3 3 4 4 4 5 8 10 7 7 6 6 7 11 13 13 14 15 14 15 16 17 17 18 19 20 21 21 21 20 20 20 21 21 21
6 6 6 7 6 6 6 6 6 6 6 5 5 5 5 5 5 5 6 4 4 4 4 5 5 4 4 3 4 5 4 4 5 4 4 5 5 5 4 4 6 6 4 4 7 4 4 2 4 4 2 4 3 5 4 6 9 10 8 7 7 7 11 13 13 13 13 14 15 15 15 17 18 18 18 19 20 21 22 21 20 20 21 21 21
5 6 6 6 6 5 5 6 5 6 5 5 5 5 4 5 4 5 5 4 4 6 5 4 5 3 4 5 4 5 4 5 4 4 4 4 5 5 4 4 5 6 6 3 4 3 4 4 5 5 5 7 5 6 6 6 8 9 8 7 7 10 15 11 13 13 13 14 15 16 15 16 17 19 18 18 20 21 22 22 21 21 21 21 21
6 6 6 6 6 6 5 5 5 5 5 5 5 5 4 5 4 4 4 3 5 6 7 4 3 4 4 5 5 5 4 4 4 5 5 5 5 5 5 5 5 6 5 5 6 12 4 5 5 7 7 8 7 7 8 6 6 11 8 7 9 13 9 7 10 13 14 14 14 15 16 16 17 18 20 20 20 21 21 22 22 21 21 21 21
5 5 5 5 5 5 5 5 6 6 6 6 5 4 5 5 4 5 5 4 5 6 5 6 4 4 4 5 6 6 4 5 5 5 5 5 4 4 4 4 5 5 6 6 7 9 9 5 5 7 5 4 7 6 7 8 7 6 8 8 8 8 8 7 8 11 14 14 14 15 16 17 18 18 20 21 21 21 22 23 23 22 22 21 21
5 6 6 5 5 5 5 6 6 6 6 6 5 5 5 6 6 4 5 5 6 7 5 6 5 4 4 5 6 6 5 6 5 5 5 5 5 5 5 5 6 6 6 6 6 7 13 7 4 4 6 5 8 7 7 9 9 7 9 8 7 7 8 8 8 8 12 15 15 15 16 17 19 19 19 21 22 22 22 23 23 23 22 22 21
5 5 6 6 6 6 6 6 6 6 7 7 6 5 6 6 6 6 6 6 7 7 6 7 6 5 5 6 7 6 3 5 6 6 5 6 5 6 7 5 6 7 5 7 6 8 13 12 8 5 5 4 6 8 9 7 8 8 10 10 8 7 7 8 9 8 10 15 16 17 17 18 19 20 20 20 22 22 22 23 23 23 22 22 21
6 6 5 6 5 6 7 7 7 7 7 7 7 6 7 7 7 7 7 6 6 6 7 7 7 6 6 6 6 6 5 6 6 5 4 5 5 5 6 5 6 7 6 5 7 6 5 10 12 11 8 8 8 7 7 8 8 9 8 9 9 9 9 8 8 9 10 15 17 18 18 18 19 20 21 21 21 22 21 22 23 23 22 22 22
6 5 5 4 5 6 7 8 8 8 8 8 7 7 7 6 7 7 7 6 6 7 7 7 6 6 7 7 8 5 4 6 6 5 5 6 6 5 6 5 6 5 5 5 5 5 5 10 10 9 8 6 7 9 9 10 8 8 9 9 10 10 10 9 9 8 13 17 17 18 18 18 19 20 21 22 21 22 22 22 22 23 23 23 22
6 6 7 6 6 7 8 8 8 8 8 7 8 8 7 6 6 6 6 6 6 6 7 7 7 7 7 7 7 5 5 6 7 6 5 7 5 6 6 6 6 5 6 6 5 5 8 8 9 11 8 8 7 8 8 7 11 15 15 14 9 9 9 9 8 8 8 8 8 9 13 15 17 19 21 22 22 22 23 22 22 23 23 23 23
9 9 8 8 7 8 8 8 8 8 8 7 7 7 7 7 6 6 6 6 6 6 6 7 7 6 6 6 6 6 6 7 7 7 6 6 5 7 6 6 5 5 6 6 5 5 6 8 8 9 9 8 7 11 9 5 9 10 14 15 13 7 8 9 10 7 8 11 13 17 17 17 19 18 19 22 23 23 24 24 23 23 23 24 23
10 9 8 8 9 8 9 8 8 7 7 6 7 7 7 7 7 7 7 6 6 6 7 6 6 6 6 6 7 7 7 7 7 7 6 7 5 6 6 5 5 5 6 5 5 5 6 8 10 12 10 12 12 12 10 8 9 11 7 8 13 12 10 8 9 10 8 9 12 11 11 14 15 17 19 20 22 23 23 24 25 25 25 24 23
8 8 7 8 9 9 8 7 7 6 6 7 6 7 7 7 7 7 6 6 6 7 6 6 5 6 6 6 7 7 8 9 11 10 9 8 5 6 6 5 5 5 5 4 5 5 7 7 9 10 11 13 13 12 13 13 13 12 9 9 14 13 10 11 9 8 9 11 10 11 10 9 11 11 11 12 13 17 18 21 19 24 25 23 23
8 8 7 9 9 9 8 7 7 6 6 6 7 11 8 6 6 5 5 6 6 7 6 6 6 6 6 6 6 11 11 11 11 12 12 12 12 9 7 5 6 5 5 5 5 5 6 9 9 11 12 13 13 14 14 14 12 8 11 13 15 15 13 13 10 7 7 9 11 13 11 7 9 13 12 15 14 14 13 12 12 13 17 22 24
8 8 9 10 9 8 7 7 7 7 6 5 9 9 10 10 6 5 6 6 6 6 6 6 7 7 6 6 6 8 8 8 8 10 11 12 12 13 13 13 10 8 6 5 6 5 7 8 9 9 11 14 15 15 15 15 14 14 13 13 14 14 14 16 17 8 5 8 10 12 14 10 9 14 14 15 16 14 14 14 18 18 20 20 22
9 8 9 10 8 6 5 6 7 7 6 8 10 10 10 11 9 6 5 5 6 6 6 6 6 6 6 6 5 4 5 5 5 6 7 10 11 11 12 12 11 12 11 10 8 6 7 9 9 10 11 12 14 14 16 14 14 13 12 13 13 14 15 16 14 13 8 8 12 14 17 11 10 14 16 16 15 14 15 17 19 21 20 21 21
7 8 9 7 7 6 7 8 8 7 6 8 11 12 12 11 9 7 5 6 6 7 6 6 6 6 6 5 5 5 4 6 6 5 5 5 8 10 9 9 9 11 11 12 13 10 7 9 11 11 11 13 13 15 15 16 14 16 15 15 13 13 14 15 15 13 15 11 13 14 18 12 7 13 17 15 13 14 14 17 21 22 22 22 22
8 8 6 7 6 7 8 8 8 7 7 9 12 12 10 9 9 7 6 7 7 7 6 6 5 7 6 5 5 6 5 5 5 5 4 4 6 7 6 6 7 8 8 9 10 12 12 10 10 11 14 12 13 15 17 16 16 17 16 16 16 15 14 15 20 18 17 9 14 15 18 14 10 12 16 16 13 14 14 18 20 20 21 22 22
8 7 7 7 8 8 8 8 7 8 7 11 12 9 8 9 9 7 5 5 5 5 5 5 6 6 4 4 5 5 5 6 5 5 4 5 6 7 8 9 9 9 8 7 6 7 6 6 10 12 13 14 15 16 16 15 16 15 14 17 17 18 18 19 20 20 18 12 17 14 18 12 8 11 16 15 13 14 13 16 20 21 20 20 22
5 5 6 7 8 8 7 8 8 9 7 10 7 7 8 9 7 4 5 5 4 4 5 5 4 3 3 4 4 5 6 5 7 9 6 5 6 8 9 10 9 8 7 5 5 7 8 8 8 11 12 14 15 14 15 14 14 14 14 14 14 14 15 15 17 15 15 12 12 14 15 12 10 15 16 13 12 14 13 13 16 20 21 21 21
6 7 7 8 6 7 8 8 9 8 7 4 6 6 7 7 6 4 4 3 3 4 6 4 2 3 3 4 4 4 5 6 7 8 6 3 6 8 8 9 8 8 7 6 6 8 8 10 12 14 16 18 19 20 20 21 17 15 10 10 12 11 12 16 15 14 17 14 11 13 16 17 15 12 15 13 12 13 13 13 12 16 19 21 21
6 7 6 6 6 7 9 9 9 8 5 5 8 8 9 9 7 5 4 3 4 5 4 2 1 2 4 6 5 5 7 8 6 6 5 4 6 8 8 9 9 8 7 4 3 4 7 12 14 15 16 16 18 19 19 18 18 13 9 11 12 11 13 14 16 18 21 17 14 13 14 15 14 11 13 12 11 12 13 12 12 13 16 17 21
7 6 6 6 7 6 6 6 5 7 5 4 8 9 8 8 7 4 4 4 4 4 2 3 2 2 2 2 3 3 4 5 7 6 5 5 5 6 6 5 6 7 5 4 5 7 7 8 9 10 12 11 10 10 12 14 15 15 12 14 11 10 14 15 16 18 20 18 6 9 12 13 11 12 10 8 10 10 11 11 12 12 12 10 10
Wind_Direction
237 236 232 240 242 247 250 257 252 263 264 304 310 305 300 301 322 333 345 343 326 307 298 295 293 292 290 293 288 281 284 285 285 288 288 288 288 289 291 288 290 286 280 191 230 239 252 255 240 238 239 230 224 220 218 220 221 221 220 217 214 213 214 215 217 222 225 227 227 226 225 225 223 219 216 216 217 221 227 230 233 233 233 235 234
244 243 230 256 259 265 261 254 260 246 204 288 313 276 311 337 359 6 358 337 315 305 305 297 296 292 281 289 291 284 278 282 288 290 291 288 287 294 296 298 292 284 272 234 225 233 247 253 249 241 236 247 240 222 222 220 221 223 222 222 217 217 217 216 218 219 224 228 230 231 231 229 228 226 223 221 221 222 225 229 232 234 236 237 238
245 247 238 252 267 268 261 271 271 355 27 7 12 41 84 53 11 358 339 314 296 303 303 302 305 302 290 283 280 282 280 280 285 287 288 287 287 289 293 296 297 289 269 257 237 241 243 244 243 233 234 230 239 247 233 221 222 221 225 224 222 220 220 221 221 219 220 224 228 230 233 233 232 230 229 228 226 225 227 230 232 234 236 238 238
237 243 232 238 252 253 261 264 271 28 99 84 91 93 85 70 178 205 246 279 299 299 295 298 305 305 304 287 290 285 280 279 279 282 284 285 283 282 283 290 294 286 269 262 231 231 237 237 239 239 235 235 237 233 253 256 233 223 225 224 226 226 223 224 225 225 223 222 224 227 228 233 234 234 234 233 233 230 230 231 233 234 236 237 238
226 228 237 249 254 255 252 235 242 213 112 115 124 16 255 284 283 270 282 294 296 295 295 297 310 299 299 289 288 276 268 271 269 274 275 280 278 278 274 278 278 276 266 264 258 217 236 240 236 236 234 234 236 229 245 250 264 266 235 226 228 227 228 226 226 228 228 227 226 225 225 226 229 233 236 237 237 237 234 233 234 235 236 236 236
233 221 104 213 354 279 265 217 47 346 210 165 287 268 315 291 278 290 279 273 265 275 302 306 312 307 293 284 281 270 273 264 262 266 271 273 274 271 270 264 264 273 271 262 256 205 220 233 242 243 243 241 236 233 237 247 249 241 274 263 243 231 230 228 228 228 229 229 229 228 227 226 227 228 231 236 239 241 239 237 236 237 237 238 239
86 159 191 177 184 220 263 1 336 203 241 220 237 290 278 271 276 269 263 265 291 287 285 287 295 293 289 294 282 280 263 262 264 271 271 271 271 265 261 254 251 250 262 263 264 242 221 231 238 245 248 252 250 237 239 233 228 237 237 233 253 256 237 231 229 229 229 230 231 230 230 228 228 228 229 231 235 239 241 240 239 239 239 239 240
179 137 159 165 182 171 164 192 244 239 231 237 222 228 222 243 256 252 277 287 286 284 254 278 285 285 288 287 280 279 273 264 267 269 267 272 272 276 269 260 249 242 248 256 256 247 222 225 234 243 248 247 241 238 249 249 248 246 249 249 242 250 254 241 234 232 232 231 232 233 232 231 231 230 230 231 233 234 237 240 241 241 240 240 240
42 12 334 180 173 169 247 196 220 231 251 221 211 221 220 224 236 254 262 294 306 297 291 267 273 272 280 283 279 282 281 280 273 266 271 267 275 276 272 263 258 259 253 251 252 249 231 216 221 233 237 245 251 251 251 261 254 249 247 244 240 246 253 253 242 237 235 234 234 232 232 232 232 232 231 232 232 232 233 235 238 239 240 239 239
163 174 181 199 205 215 201 221 228 222 218 197 195 186 181 208 268 312 275 264 290 292 291 287 282 288 282 280 288 291 296 299 294 299 295 289 284 275 267 260 260 257 255 251 245 240 247 241 237 234 242 257 260 252 233 240 243 244 243 242 242 243 248 250 259 254 248 244 239 234 233 233 232 231 231 231 232 232 232 233 234 235 236 237 238
160 176 185 217 223 217 235 209 196 167 175 151 122 255 229 207 235 275 267 247 253 258 265 287 299 300 295 293 296 299 305 299 305 300 289 289 292 292 280 265 250 252 258 254 244 241 246 250 242 248 219 213 239 255 247 244 240 243 246 249 249 249 249 246 241 246 248 249 247 246 238 231 232 232 232 232 231 232 233 233 233 233 232 232 233
179 188 191 209 215 220 206 189 191 176 183 211 237 212 224 229 236 240 281 284 241 250 257 273 285 286 294 303 299 297 294 301 298 297 309 317 324 322 325 311 267 261 255 252 245 244 247 248 248 244 241 217 216 225 235 238 238 238 238 241 245 247 253 252 249 246 246 243 247 244 245 241 232 232 233 232 230 230 230 232 233 233 232 231 230
172 168 192 198 200 191 184 199 200 191 198 219 224 224 222 198 212 241 251 282 298 265 279 215 328 316 339 316 312 312 297 296 278 344 349 345 349 358 7 20 23 4 328 292 276 269 271 266 267 263 261 266 250 234 225 242 248 244 249 251 249 248 245 247 246 243 244 245 246 247 245 244 244 235 232 233 232 231 230 230 230 231 233 232 231
174 174 185 183 179 183 186 198 189 203 214 227 231 242 242 219 193 252 247 283 294 258 289 201 16 32 336 339 323 343 23 27 18 359 357 356 360 9 18 30 29 25 23 21 19 358 322 314 300 296 296 291 286 281 260 253 255 252 247 245 250 254 253 252 253 251 251 250 252 250 247 244 245 245 237 232 233 232 232 231 231 231 232 232 231
176 180 181 182 185 190 201 190 190 196 210 230 236 247 231 232 203 211 288 282 287 317 10 267 342 172 51 348 9 344 337 8 350 350 349 355 5 12 12 21 15 11 8 24 27 7 357 339 324 312 304 299 298 295 291 281 276 269 258 258 260 262 265 260 257 257 257 257 260 260 259 252 242 244 246 239 233 232 232 232 232 232 232 233 233
185 184 182 187 189 192 185 172 195 195 195 205 215 244 222 192 162 190 185 301 343 319 1 1 191 55 358 19 56 38 333 10 334 322 342 341 10 6 6 5 0 356 2 19 11 9 2 358 342 331 315 310 307 299 288 289 285 289 293 286 277 270 272 273 268 265 260 259 256 254 253 248 249 246 246 241 244 238 233 232 232 232 231 233 234
186 188 186 186 192 183 173 185 179 194 186 195 203 227 212 231 151 149 174 186 199 330 314 342 325 293 141 167 38 46 191 287 336 285 350 4 3 350 357 359 1 353 355 355 355 4 358 6 6 349 335 323 312 304 306 304 303 299 298 297 299 293 285 280 278 267 262 257 253 250 250 253 257 255 250 248 239 238 239 234 233 231 231 231 232
184 183 190 174 181 177 172 167 165 174 183 201 213 207 199 194 196 165 172 176 142 97 313 318 333 320 259 175 158 166 272 128 21 341 328 158 312 334 337 357 354 345 346 345 356 351 359 359 360 360 356 353 338 322 321 314 308 307 306 298 297 291 288 287 283 283 275 267 267 258 258 258 256 255 251 249 250 241 237 238 233 232 231 231 231
176 178 184 181 166 163 163 164 167 161 177 166 166 202 195 185 162 164 159 146 150 178 237 267 338 48 344 292 286 307 110 170 105 233 340 314 304 324 324 350 347 341 345 350 347 349 351 355 352 356 357 1 355 354 346 332 324 323 316 317 315 312 309 307 307 302 292 288 280 272 257 252 251 256 256 255 256 254 247 239 236 232 231 230 231
161 172 174 170 152 149 151 163 166 171 172 179 183 180 148 162 153 139 145 162 172 190 245 248 81 289 317 312 299 297 252 218 211 173 194 290 313 299 183 346 345 344 5 340 347 351 343 347 349 355 357 357 2 2 0 349 343 335 330 320 318 320 317 314 313 310 308 302 294 285 267 253 252 253 256 255 253 255 252 252 249 242 233 231 230
166 163 167 158 158 164 160 168 166 171 162 152 152 159 167 156 157 163 176 183 194 206 222 244 194 226 198 291 329 332 317 299 241 181 168 217 277 283 316 343 355 235 347 333 332 339 340 334 338 350 352 355 3 5 0 360 351 347 344 343 341 338 337 334 326 320 316 313 307 294 284 273 263 260 259 258 257 256 255 248 248 247 244 237 228
174 167 166 174 175 169 167 180 177 171 149 167 148 144 157 156 175 177 179 188 209 207 219 233 217 226 209 158 152 89 42 37 346 173 257 210 255 292 304 318 329 314 338 333 341 338 332 336 336 345 347 355 1 360 2 357 354 347 340 343 343 339 338 335 332 327 324 320 315 308 297 285 279 273 265 262 260 255 255 254 249 248 245 244 243
168 179 193 178 177 176 178 181 172 172 161 163 187 194 205 201 190 168 180 194 191 197 211 222 222 224 215 198 196 191 193 197 203 205 192 215 315 291 292 281 261 304 276 329 322 311 310 316 322 330 339 342 349 353 357 349 346 338 339 340 341 338 337 336 334 331 327 322 318 312 309 304 291 282 274 266 264 260 259 258 255 251 247 244 242
166 168 186 179 177 185 187 169 176 175 180 190 192 206 203 197 193 191 208 208 192 182 188 191 205 217 220 210 204 190 197 208 204 174 180 214 196 264 289 314 307 229 252 309 278 275 310 303 270 300 317 315 322 353 344 340 330 332 335 336 335 336 332 331 333 331 327 323 319 316 312 306 300 294 292 284 274 267 260 257 256 254 251 247 245
189 184 188 183 181 178 177 182 190 197 188 187 212 213 208 203 204 211 207 213 213 203 194 218 193 194 213 190 184 180 204 213 169 178 213 158 190 237 264 242 251 308 323 25 329 308 268 267 272 293 301 287 293 341 328 330 323 324 332 327 330 327 324 324 326 325 324 321 317 314 313 310 304 298 289 284 279 276 273 266 260 257 255 254 253
179 191 189 181 188 186 180 191 198 196 187 199 207 209 203 208 216 221 220 224 209 209 219 226 203 218 196 190 205 195 210 185 193 172 172 167 198 219 243 251 240 270 321 319 314 356 308 269 263 272 281 263 285 310 336 321 314 322 327 326 320 313 315 316 317 318 318 316 311 310 308 306 303 300 295 288 283 279 274 270 266 262 259 255 253
180 192 175 178 184 180 184 191 198 203 202 205 210 209 205 212 219 227 237 220 212 204 224 216 225 226 211 210 217 207 216 191 183 198 184 197 193 179 168 269 293 228 269 268 304 255 253 285 256 268 247 250 268 310 318 310 314 318 319 319 308 307 308 307 307 312 312 310 306 305 304 302 299 296 293 290 285 279 275 273 270 265 258 254 253
190 173 182 175 178 185 190 200 202 205 208 205 208 205 204 206 225 223 239 211 211 213 227 209 229 231 226 211 197 231 214 205 198 196 193 191 185 153 161 166 220 284 218 264 254 263 236 259 290 235 243 247 266 300 308 312 304 307 312 303 299 297 300 301 305 306 307 305 305 303 301 299 296 293 290 287 282 277 271 268 267 266 263 260 255
178 185 176 184 180 185 193 202 205 208 209 210 208 208 199 205 218 221 236 224 214 222 214 214 226 223 223 208 211 220 222 211 208 203 197 188 193 176 177 186 166 216 278 279 249 235 245 205 260 279 220 234 279 293 295 285 295 302 299 296 291 288 282 291 300 302 303 305 302 299 298 296 295 292 289 286 282 278 272 267 263 263 262 260 258
176 182 181 184 189 190 190 202 206 203 210 215 214 215 201 213 223 234 239 236 233 243 227 220 229 211 221 220 217 226 226 205 214 208 193 198 188 193 188 182 162 191 201 263 284 196 227 235 213 267 256 261 278 287 284 281 284 293 285 283 285 285 291 291 293 297 297 297 298 295 293 293 293 291 288 285 281 278 274 268 263 260 258 257 255
177 177 185 192 191 193 191 204 204 211 216 225 222 224 209 225 227 239 243 229 238 253 247 218 235 212 216 231 218 235 221 225 225 215 213 194 203 191 195 171 187 187 188 198 278 257 178 221 239 236 272 284 283 282 278 277 284 289 284 279 278 280 290 293 291 288 289 289 291 294 292 288 289 290 287 283 281 277 274 270 265 260 256 254 253
184 182 184 193 192 192 192 200 211 218 223 227 219 218 207 221 221 235 238 209 232 240 255 231 235 224 229 239 239 238 229 222 231 225 216 213 202 198 193 192 198 194 178 196 219 268 227 218 244 264 256 274 278 279 279 272 274 284 283 278 280 289 288 280 277 278 281 283 284 287 289 288 285 286 286 285 280 277 273 271 266 260 256 253 251
177 181 192 198 197 198 199 206 213 220 225 232 216 206 210 227 226 225 241 213 225 243 240 255 231 224 227 237 248 246 232 229 227 229 226 220 209 214 202 198 210 195 186 194 233 260 274 207 224 249 255 256 281 249 267 278 281 276 277 275 279 280 282 274 274 271 277 279 281 281 284 286 286 282 283 283 280 276 273 270 266 261 256 252 249
177 191 198 202 200 198 203 217 221 222 227 233 222 200 214 225 237 210 231 221 227 245 238 250 254 230 227 238 248 250 227 233 235 229 226 222 212 214 214 204 217 221 195 204 225 247 274 278 246 229 266 230 263 260 272 286 288 289 285 282 275 268 271 277 277 273 271 281 281 280 280 282 284 282 279 280 280 276 271 267 263 260 256 251 247
194 200 204 201 201 199 208 219 223 228 228 233 226 204 218 220 230 235 227 227 229 239 240 245 248 244 239 238 246 246 229 235 234 236 228 230 219 222 227 215 226 233 211 208 224 254 270 280 292 279 262 256 248 281 282 271 276 283 288 285 286 280 266 269 276 280 273 278 280 280 280 280 281 282 280 277 278 277 272 266 261 257 254 250 245
199 212 209 207 202 199 207 219 223 229 232 232 233 214 219 215 222 233 234 228 230 236 242 250 247 229 235 243 247 236 230 240 246 239 231 228 225 228 235 232 227 240 237 212 221 246 291 292 287 285 282 286 279 269 270 276 283 290 282 284 279 276 274 275 271 275 280 277 277 278 280 280 279 279 279 275 274 274 272 266 260 255 251 247 243
209 212 222 217 211 205 209 217 221 223 226 227 229 231 226 220 223 229 233 230 229 233 237 243 243 234 233 234 247 229 212 235 249 246 233 229 228 228 236 237 235 239 243 237 233 208 235 269 279 278 284 268 271 283 283 290 289 279 281 276 283 284 281 273 276 265 273 277 275 277 276 277 278 277 276 275 272 271 269 266 260 254 248 245 241
208 207 213 221 217 218 215 217 219 223 223 222 223 229 230 221 219 224 226 225 230 230 233 232 235 230 235 239 242 236 218 223 242 242 234 237 233 234 237 241 242 244 246 251 245 238 258 267 278 288 281 283 285 275 277 282 293 297 297 293 280 274 279 281 267 272 272 277 284 280 280 277 275 274 274 274 272 269 267 265 260 254 247 243 240
205 213 213 218 223 222 221 218 222 223 223 221 223 225 226 219 214 214 220 221 226 226 227 232 233 231 234 239 245 232 229 225 234 236 234 237 233 240 237 238 245 243 249 253 254 253 264 272 276 271 279 275 264 282 284 272 275 277 286 292 293 269 272 279 284 272 274 279 271 269 272 277 278 278 275 274 272 269 266 264 260 253 246 240 237
208 209 216 218 225 220 221 218 223 222 222 222 221 220 217 212 205 212 215 218 226 229 233 234 231 233 232 236 240 237 231 230 226 234 227 238 231 242 242 235 237 239 248 253 259 256 269 274 272 281 283 289 289 282 281 275 280 281 252 265 286 290 286 280 276 288 279 273 285 279 267 270 271 268 265 262 263 263 263 262 258 251 244 238 234
199 202 218 227 229 226 223 220 224 218 213 216 212 208 205 208 207 220 223 227 230 238 242 237 231 231 235 236 239 239 233 237 234 233 235 229 226 238 246 229 232 234 246 248 251 263 272 270 276 279 285 288 287 290 290 286 281 278 286 288 287 283 279 283 276 269 279 283 274 275 272 269 278 275 274 270 265 265 265 258 255 249 242 235 231
195 193 210 225 230 226 219 217 216 210 213 214 216 211 208 208 213 228 236 237 235 237 242 254 255 238 240 240 246 247 247 246 244 243 243 244 242 242 248 230 233 232 240 248 251 244 262 270 272 281 287 286 287 289 289 283 281 276 284 284 286 291 292 285 270 257 270 273 282 283 275 267 268 276 274 278 274 268 270 267 255 244 238 230 228
215 212 217 225 226 223 214 205 206 213 216 218 222 222 223 227 227 228 234 244 240 236 229 234 247 255 250 242 248 257 257 254 249 248 250 252 255 253 250 251 250 242 245 258 253 243 261 266 273 274 277 283 286 290 289 289 288 288 286 286 288 291 293 298 299 285 219 260 279 282 280 276 271 275 274 272 273 266 263 263 268 252 237 232 225
218 217 223 228 229 218 211 210 214 215 218 223 225 228 230 232 228 230 236 245 247 237 231 229 239 247 256 258 253 247 247 242 243 249 250 254 257 259 256 251 248 247 232 229 249 256 252 262 267 264 274 279 286 288 289 290 291 291 286 288 285 286 288 289 289 288 291 287 287 286 280 273 265 270 272 269 265 260 256 255 256 256 241 231 227
217 225 228 227 224 209 211 212 217 218 222 225 223 224 227 230 229 222 238 236 237 240 226 224 231 240 247 252 263 261 251 242 247 244 246 268 276 268 255 248 242 246 251 244 238 243 255 262 268 277 274 281 284 283 283 286 291 290 290 289 286 283 282 284 284 286 292 299 292 281 280 277 255 267 271 267 259 257 254 248 246 250 244 231 226
222 234 234 223 217 212 213 213 216 220 222 230 224 223 224 225 223 208 217 219 226 233 228 227 233 241 244 248 259 267 269 262 253 251 252 271 272 280 269 266 270 268 254 236 239 244 243 249 260 265 276 275 274 280 285 289 289 288 290 288 288 286 286 289 291 287 283 282 275 281 280 275 243 254 264 263 257 251 250 250 249 247 240 231 225
217 222 221 218 220 219 218 215 219 223 228 228 228 220 222 226 228 213 206 208 212 223 234 236 241 250 258 244 243 255 262 266 263 280 294 282 281 282 281 280 277 276 276 279 262 255 252 242 251 262 272 278 278 281 285 287 287 287 287 290 293 292 291 288 283 274 269 251 265 266 272 274 249 246 256 255 249 251 250 246 240 244 242 231 224
209 203 215 217 222 222 220 219 220 231 233 228 215 210 216 228 217 198 190 184 190 216 240 240 243 244 237 231 232 242 253 265 276 280 281 281 271 281 285 284 285 281 277 271 292 284 268 267 271 273 277 282 286 286 287 289 291 289 289 287 284 282 285 286 287 281 272 260 247 262 268 268 252 259 261 253 246 249 246 244 240 234 236 231 224
207 206 217 218 219 219 221 219 223 232 237 199 185 199 208 195 179 183 168 162 189 221 238 235 227 229 218 220 225 247 270 276 283 297 328 283 258 258 264 274 282 289 287 294 257 249 263 268 266 269 271 274 276 277 275 274 273 278 285 286 281 285 290 293 287 283 277 277 272 264 265 271 261 245 256 251 243 246 244 239 240 236 229 226 221
216 221 217 225 220 218 219 221 215 221 228 186 188 187 177 186 187 185 172 178 224 234 246 226 203 231 251 264 272 279 284 287 313 341 339 299 258 256 262 276 286 289 292 302 311 284 257 262 269 270 270 269 270 270 270 269 271 270 263 262 271 284 284 283 290 293 292 286 274 261 257 254 256 239 251 255 251 241 244 241 236 238 232 222 219
221 215 205 219 228 221 217 211 188 194 196 184 180 175 177 187 185 162 155 177 224 244 266 298 303 268 292 321 306 293 288 302 321 313 320 291 264 268 276 282 280 287 299 337 322 318 321 322 310 309 303 292 287 291 293 285 278 278 272 273 274 276 284 288 291 297 298 292 253 267 266 260 244 243 222 244 248 246 228 230 231 228 229 220 210